STARLINK-34370, 64309

Orbit data source: Space-Track

STARLINK-34370, 64309 is a payload satellite owned by SpaceX/Seattle (US) in LEO that was launched on Sun, 08 Jun 2025 UTC via an FALCON 9 launch vehicle from the Air Force Western Test Range (AFWTR). Payload-class satellites include a variety of spacecraft equipped with specific instruments for various scientific and technological missions. These include communications satellites like Starlink; space stations such as the ISS; scientific satellites like the Hubble; Earth observation satellites from companies like Planet Labs, Umbra, and HawkEye 360; GPS; miniature CubeSats for education and research; and military/defense satellites.

Loading next visibility...
Identifier
64309, 2025-123U
Orbit
LEO
Country
Flag of USUS
Related business
Manufacturer
SpaceX/Seattle
Mission
Operational Commercial Communications
Bus & Motor
STARLINK V2MO, Unknown motor
Mass
575 kg wet, ~530 kg dry
Launch date (UTC)
2025-06-08 (10 months ago)
Launch vehicle
FALCON 9
Launch site
Air Force Western Test Range (AFWTR)
Object type
Payload
Rocket body
Debris
Shape & HBR
Box + 2 Pan, 17.7 m
Radar Cross Section
36.964 m², Large (>1 m²)

Expand to show TLE details & history
Last TLE update: 21 hours ago

TLE from 21 hours ago
0 STARLINK-34370
1 64309U 25123U   26093.49760016  .00005428  00000-0  46217-3 0  9990
2 64309  70.0004 131.9397 0003699 269.0210  91.0525 14.98343090 45333
Epoch: 2026-04-03T11:56Z
TLE epoch observation values (Epoch: 2026-04-03T11:56:32.653Z)
Latitude
-0.00007°
Longitude
120.97275°
Altitude
574.488 km
Speed
7.574 km/s
True Right ascension
08h 47m 45s
True Declination
0° 00' 00"
Sunlit
Object was in full shadow at epoch
Visualization orbit readout
Latitude
Unknown
Longitude
Unknown
Altitude
Unknown
Speed
Unknown
Apparent Right ascension
Unknown
Apparent Declination
Unknown
Sunlit
N/A
Visualization observer readout
Local Sidereal Time
14:59:08
Azimuth
Unknown
Elevation
Unknown
Doppler factor
Unknown
Orbital elements
Apogee altitude
572.534 km
Perigee altitude
567.393 km
Semi-major axis
6,948.101 km
Eccentricity
0.00037
Inclination
70.0004°
RAAN
131.9397°
Arg. of periapsis
269.021°
True anomaly
91.09488°
Mean anomaly
91.0525°
Eccentric anomaly
91.07369°
Mean motion
3.74752 °/min
Orbital period
96.06 mins
BSTAR
0.00046217
Loading maneuver chart data...
Computing Atmospheric mass density...
Loading historical data...
Loading historical data...
Loading historical data...
Loading historical data...
Loading historical data...
Loading historical data...
Loading historical data...

Documentation

Showing up to 5 results
|